Weather reports worldwide

Advertisment
Marina Di Ginosa, Italy (16325): temperature & dewpoint: 16.02.2019 22:00:00 - 22.02.2019 22:00:00 (CET)Marina Di Ginosa, Italy (16325): wind speed: 16.02.2019 22:00:00 - 22.02.2019 22:00:00 (CET)Marina Di Ginosa, Italy (16325): wind direction: 16.02.2019 22:00:00 - 22.02.2019 22:00:00 (CET)Marina Di Ginosa, Italy (16325): reduced air pressure: 16.02.2019 22:00:00 - 22.02.2019 22:00:00 (CET)Marina Di Ginosa, Italy (16325): visibility: 16.02.2019 22:00:00 - 22.02.2019 22:00:00 (CET)
Date & Time tt [°C] td [°C] ff [km/h] ff [kn] dd ppp [hPa] vv [km]
22.02.2019 22:00:00 11,8 8,5 24 13 NW 1017,2 1,0
22.02.2019 21:00:00 12,0 8,0 24 13 NW - 1,5
22.02.2019 20:00:00 13,0 8,0 24 13 NW - 10
22.02.2019 19:00:00 12,8 5,9 15 8 WNW 1017,3 20
22.02.2019 18:00:00 13,0 5,0 9 5 NW - 10
22.02.2019 17:00:00 15,0 4,0 8 4 N - 10
22.02.2019 16:00:00 16,6 4,6 15 8 NNE 1018,0 10
22.02.2019 15:00:00 17,0 3,0 18 10 - - 10
22.02.2019 14:00:00 16,0 6,0 5 3 E - 9
22.02.2019 13:00:00 16,0 5,6 11 6 NW 1019,0 4,0
22.02.2019 12:00:00 15,0 6,0 15 8 NW - 7
22.02.2019 11:00:00 15,0 6,0 11 6 NW - 8
22.02.2019 10:00:00 13,4 5,8 13 7 NW 1021,2 4,0
22.02.2019 09:00:00 10,0 6,0 13 7 WNW - 8
22.02.2019 08:00:00 7,0 5,0 13 7 WNW - 7
22.02.2019 07:00:00 5,0 3,7 9 5 WNW 1021,8 2,0
22.02.2019 06:00:00 5,0 4,0 16 9 WNW - 6
22.02.2019 05:00:00 5,0 3,0 13 7 W - 6
22.02.2019 04:00:00 6,2 4,4 9 5 W 1022,8 4,0
22.02.2019 03:00:00 6,0 5,0 13 7 WNW - 3,0
22.02.2019 02:00:00 6,0 5,0 13 7 W - 3,0
22.02.2019 01:00:00 6,0 5,3 11 6 W 1024,2 2,0
22.02.2019 00:00:00 6,0 6,0 15 8 WNW - 3,0
21.02.2019 23:00:00 6,0 5,0 13 7 WNW - 3,0
21.02.2019 22:00:00 7,0 5,5 9 5 WNW 1024,7 2,0
21.02.2019 21:00:00 8,0 6,0 8 4 W - 3,0
21.02.2019 20:00:00 9,0 7,0 9 5 NW - 3,0
21.02.2019 19:00:00 10,8 7,3 8 4 NNW 1024,6 2,0
21.02.2019 18:00:00 12,0 7,0 9 5 NE - 4,0
21.02.2019 17:00:00 14,0 7,0 11 6 NNE - 6
21.02.2019 16:00:00 15,2 6,7 18 10 NE 1024,4 4,0
21.02.2019 15:00:00 16,0 6,0 11 6 - - 6
21.02.2019 14:00:00 16,0 6,0 11 6 - - 5
21.02.2019 13:00:00 15,4 6,1 9 5 N 1025,2 4,0
21.02.2019 12:00:00 15,0 7,0 11 6 - - 4,0
21.02.2019 11:00:00 15,0 7,0 13 7 - - 4,0
21.02.2019 10:00:00 12,2 7,5 15 8 WNW 1026,2 4,0
21.02.2019 09:00:00 10,0 7,0 13 7 NW - 4,0
21.02.2019 08:00:00 7,0 6,0 13 7 NW - 10
21.02.2019 07:00:00 6,2 5,5 13 7 NW 1025,1 10
21.02.2019 06:00:00 5,0 5,0 13 7 NW - 10
21.02.2019 05:00:00 6,0 5,0 11 6 NW - 10
21.02.2019 04:00:00 6,0 5,0 11 6 NNW 1024,6 10
21.02.2019 03:00:00 7,0 5,0 11 6 NNW - 10
21.02.2019 02:00:00 7,0 6,0 9 5 NW - 10
21.02.2019 01:00:00 6,2 5,5 11 6 NW 1024,5 10
21.02.2019 00:00:00 7,0 6,0 11 6 NW - 10
20.02.2019 23:00:00 7,0 6,0 13 7 NW - 10
20.02.2019 22:00:00 8,4 6,5 9 5 NW 1024,2 10
20.02.2019 21:00:00 9,0 7,0 13 7 NW - 10
20.02.2019 20:00:00 10,0 7,0 5 3 NW - 10
20.02.2019 19:00:00 11,2 7,3 8 4 NNE 1023,5 10
20.02.2019 18:00:00 12,0 7,0 11 6 NNE - 10
20.02.2019 17:00:00 15,0 8,0 9 5 NNE - 10
20.02.2019 16:00:00 15,6 9,7 11 6 SSW 1022,2 10
20.02.2019 15:00:00 16,0 9,0 11 6 SSW - 10
20.02.2019 14:00:00 15,0 10,0 8 4 S - 10
20.02.2019 13:00:00 15,8 9,5 8 4 SSE 1022,2 10
20.02.2019 12:00:00 16,0 9,0 11 6 SSE - 10
20.02.2019 11:00:00 8,0 2,0 9 5 - - 10
20.02.2019 10:00:00 9,4 5,2 5 3 WNW 1023,1 10
20.02.2019 09:00:00 6,0 3,0 4 2 - - 10
20.02.2019 08:00:00 4,0 3,0 8 4 NNW - 10
20.02.2019 07:00:00 4,0 3,0 15 8 NW 1021,5 10
20.02.2019 06:00:00 4,0 3,0 15 8 WNW - 10
20.02.2019 05:00:00 4,0 3,0 15 8 WNW - 10
20.02.2019 04:00:00 4,2 3,2 15 8 NW 1021,5 10
20.02.2019 03:00:00 5,0 4,0 13 7 WNW - 10
20.02.2019 02:00:00 5,0 4,0 13 7 NW - 10
20.02.2019 01:00:00 6,0 5,4 13 7 WNW 1021,5 10
20.02.2019 00:00:00 6,0 5,0 15 8 NW - 10
19.02.2019 23:00:00 6,0 6,0 13 7 NW - 10
19.02.2019 22:00:00 7,8 7,1 11 6 NW 1021,4 10
19.02.2019 21:00:00 8,0 7,0 11 6 NW - 10
19.02.2019 20:00:00 8,0 7,0 8 4 WNW - 10
19.02.2019 19:00:00 8,0 6,5 5 3 WNW 1020,9 10
19.02.2019 18:00:00 10,0 8,0 5 3 SW - 10
19.02.2019 17:00:00 14,0 10,0 5 3 SE - 10
19.02.2019 16:00:00 15,4 10,4 9 5 SE 1021,0 20
19.02.2019 15:00:00 15,0 9,0 9 5 SE - 10
19.02.2019 14:00:00 15,0 9,0 9 5 SE - 10
19.02.2019 13:00:00 15,4 7,9 9 5 SE 1021,9 20
19.02.2019 12:00:00 15,0 7,0 8 4 SE - 10
19.02.2019 11:00:00 13,0 5,0 4 2 - - 10
19.02.2019 10:00:00 9,4 5,2 5 3 N 1022,6 20
19.02.2019 09:00:00 6,0 4,0 9 5 WNW - 10
19.02.2019 08:00:00 4,0 3,0 13 7 WNW - 10
19.02.2019 07:00:00 3,0 2,4 13 7 WNW 1021,9 10
19.02.2019 06:00:00 3,0 2,0 15 8 NW - 10
19.02.2019 05:00:00 3,0 3,0 15 8 WNW - 10
19.02.2019 04:00:00 3,8 3,2 15 8 NW 1022,2 20
19.02.2019 03:00:00 4,0 3,0 15 8 NW - 10
19.02.2019 02:00:00 4,0 3,0 15 8 NW - 10
19.02.2019 01:00:00 4,0 3,3 11 6 NW 1023,1 20
19.02.2019 00:00:00 4,0 3,0 8 4 NW - 10
18.02.2019 23:00:00 5,0 4,0 9 5 NW - 10
18.02.2019 22:00:00 5,6 5,0 11 6 NNW 1023,4 20
18.02.2019 21:00:00 7,0 6,0 11 6 N - 10
18.02.2019 20:00:00 7,0 6,0 9 5 N - 10
18.02.2019 19:00:00 10,0 7,1 5 3 WSW 1022,6 20
18.02.2019 18:00:00 13,0 8,0 9 5 SSW - 10
18.02.2019 17:00:00 15,0 7,0 9 5 S - 10
18.02.2019 16:00:00 16,0 6,4 11 6 S 1023,3 20
18.02.2019 15:00:00 15,0 7,0 8 4 S - 10
18.02.2019 14:00:00 15,0 6,0 13 7 SSE - 10
18.02.2019 13:00:00 16,0 4,7 11 6 SE 1024,5 20
18.02.2019 12:00:00 15,0 5,0 9 5 SE - 10
18.02.2019 11:00:00 11,0 5,0 4 2 - - 10
18.02.2019 10:00:00 7,0 3,6 8 4 W 1025,2 20
18.02.2019 09:00:00 4,0 2,0 8 4 NW - 10
18.02.2019 08:00:00 4,0 2,0 11 6 NW - 10
18.02.2019 07:00:00 3,8 1,7 13 7 NW 1024,6 20
18.02.2019 06:00:00 4,0 2,0 16 9 NW - 10
18.02.2019 05:00:00 4,0 2,0 18 10 NW - 10
18.02.2019 04:00:00 4,4 2,8 15 8 WNW 1024,6 20
18.02.2019 03:00:00 5,0 3,0 16 9 NW - 10
18.02.2019 02:00:00 5,0 2,0 16 9 NW - 10
18.02.2019 01:00:00 5,0 3,5 15 8 WNW 1025,4 10
18.02.2019 00:00:00 5,0 4,0 13 7 WNW - 10
17.02.2019 23:00:00 5,0 4,0 13 7 NW - 10
17.02.2019 22:00:00 6,4 5,5 11 6 NNW 1025,7 20
17.02.2019 21:00:00 7,0 6,0 13 7 NNW - 10
17.02.2019 20:00:00 8,0 7,0 8 4 WNW - 10
17.02.2019 19:00:00 8,8 6,8 5 3 W 1025,4 20
17.02.2019 18:00:00 11,0 8,0 11 6 SSW - 10
17.02.2019 17:00:00 15,0 10,0 11 6 SSW - 10
17.02.2019 16:00:00 16,0 8,3 11 6 SSW 1025,2 20
17.02.2019 15:00:00 16,0 7,0 16 9 SSW - 10
17.02.2019 14:00:00 15,0 7,0 11 6 S - 10
17.02.2019 13:00:00 16,4 6,0 9 5 SSE 1026,3 20
17.02.2019 12:00:00 16,0 4,0 5 3 - - 10
17.02.2019 11:00:00 13,0 3,0 5 3 WNW - 10
17.02.2019 10:00:00 10,4 3,7 9 5 N 1027,6 20
17.02.2019 09:00:00 8,0 4,0 11 6 NW - 10
17.02.2019 08:00:00 4,0 2,0 13 7 WNW - 10
17.02.2019 07:00:00 3,8 3,1 13 7 NW 1027,6 20
17.02.2019 06:00:00 5,0 4,0 16 9 WNW - 10
17.02.2019 05:00:00 5,0 4,0 15 8 WNW - 10
17.02.2019 04:00:00 4,0 3,4 15 8 WNW 1027,7 20
17.02.2019 03:00:00 5,0 4,0 15 8 W - 10
17.02.2019 02:00:00 5,0 5,0 15 8 NW - 10
17.02.2019 01:00:00 5,8 4,8 15 8 WNW 1027,9 20
17.02.2019 00:00:00 6,0 5,0 15 8 WNW - 10
16.02.2019 23:00:00 6,0 5,0 15 8 WNW - 10
16.02.2019 22:00:00 7,8 5,6 16 9 WNW 1028,4 20

tt = temperature
td = dewpoint
ff = wind speed
dd = wind direction
ppp = reduced air pressure
vv = visibility

Next stations